| time (UTC) | temp F | wind direction | speed MPH | gust MPH | rain 1hr in | rain 24hr in | rain mn in | humidity % | barometer mb |
| 20260503211735 | 77 | 188 | 4.0 | 6.0 | 0.00 | 0.00 | 0.00 | 40 | 1017.4 |
| 20260503211231 | 78 | 131 | 2.0 | 2.0 | 0.00 | 0.00 | 0.00 | 40 | 1017.5 |
| 20260503210727 | 78 | 74 | 3.0 | 5.0 | 0.00 | 0.00 | 0.00 | 40 | 1017.8 |
| 20260503210225 | 77 | 155 | 2.0 | 3.0 | 0.00 | 0.00 | 0.00 | 40 | 1018.0 |
| 20260503205720 | 77 | 178 | 5.0 | 7.0 | 0.00 | 0.00 | 0.00 | 39 | 1018.1 |
| 20260503205216 | 78 | 165 | 3.0 | 3.0 | 0.00 | 0.00 | 0.00 | 37 | 1018.2 |
| 20260503204713 | 78 | 189 | 3.0 | 5.0 | 0.00 | 0.00 | 0.00 | 38 | 1018.2 |
| 20260503204211 | 78 | 119 | 4.0 | 5.0 | 0.00 | 0.00 | 0.00 | 39 | 1018.2 |
| 20260503203708 | 78 | 94 | 4.0 | 5.0 | 0.00 | 0.00 | 0.00 | 38 | 1018.5 |
| 20260503203205 | 78 | 204 | 3.0 | 6.0 | 0.00 | 0.00 | 0.00 | 38 | 1018.6 |
| 20260503202702 | 78 | 164 | 4.0 | 5.0 | 0.00 | 0.00 | 0.00 | 38 | 1018.8 |
| 20260503202200 | 77 | 188 | 3.0 | 6.0 | 0.00 | 0.00 | 0.00 | 41 | 1018.7 |
| 20260503201658 | 78 | 138 | 3.0 | 3.0 | 0.00 | 0.00 | 0.00 | 42 | 1018.9 |
| 20260503201155 | 77 | 200 | 4.0 | 5.0 | 0.00 | 0.00 | 0.00 | 40 | 1018.9 |
| 20260503200651 | 77 | 143 | 7.0 | 7.0 | 0.00 | 0.00 | 0.00 | 40 | 1019.1 |
| 20260503200148 | 77 | 186 | 3.0 | 5.0 | 0.00 | 0.00 | 0.00 | 39 | 1018.9 |
| 20260503195644 | 77 | 146 | 3.0 | 5.0 | 0.00 | 0.00 | 0.00 | 39 | 1019.1 |
| 20260503195142 | 78 | 145 | 5.0 | 6.0 | 0.00 | 0.00 | 0.00 | 40 | 1019.3 |
| 20260503194639 | 77 | 121 | 3.0 | 5.0 | 0.00 | 0.00 | 0.00 | 41 | 1019.2 |
| 20260503194134 | 77 | 142 | 5.0 | 6.0 | 0.00 | 0.00 | 0.00 | 38 | 1019.2 |
| 20260503193631 | 77 | 154 | 6.0 | 7.0 | 0.00 | 0.00 | 0.00 | 38 | 1019.4 |
| 20260503193126 | 78 | 279 | 3.0 | 6.0 | 0.00 | 0.00 | 0.00 | 37 | 1019.4 |
| 20260503192622 | 77 | 178 | 2.0 | 3.0 | 0.00 | 0.00 | 0.00 | 41 | 1019.4 |
| 20260503192118 | 77 | 153 | 5.0 | 7.0 | 0.00 | 0.00 | 0.00 | 41 | 1019.8 |
| 20260503191615 | 77 | 144 | 4.0 | 5.0 | 0.00 | 0.00 | 0.00 | 42 | 1019.6 |
| 20260503191112 | 78 | 136 | 4.0 | 5.0 | 0.00 | 0.00 | 0.00 | 40 | 1019.6 |
| 20260503190609 | 77 | 62 | 1.0 | 1.0 | 0.00 | 0.00 | 0.00 | 42 | 1019.6 |
| 20260503190106 | 76 | 45 | 5.0 | 6.0 | 0.00 | 0.00 | 0.00 | 44 | 1019.8 |
| 20260503185603 | 76 | 160 | 6.0 | 8.0 | 0.00 | 0.00 | 0.00 | 41 | 1020.0 |
| 20260503185102 | 76 | 179 | 4.0 | 6.0 | 0.00 | 0.00 | 0.00 | 43 | 1020.1 |
| 20260503184558 | 77 | 165 | 7.0 | 8.0 | 0.00 | 0.00 | 0.00 | 42 | 1020.0 |
| 20260503184055 | 76 | 251 | 5.0 | 6.0 | 0.00 | 0.00 | 0.00 | 42 | 1020.3 |
| 20260503183551 | 76 | 142 | 3.0 | 6.0 | 0.00 | 0.00 | 0.00 | 41 | 1020.1 |
| 20260503183049 | 76 | 163 | 4.0 | 6.0 | 0.00 | 0.00 | 0.00 | 42 | 1020.4 |
| 20260503182547 | 76 | 164 | 5.0 | 7.0 | 0.00 | 0.00 | 0.00 | 44 | 1020.5 |
| 20260503182045 | 77 | 158 | 7.0 | 8.0 | 0.00 | 0.00 | 0.00 | 42 | 1020.5 |
| 20260503181541 | 76 | 124 | 4.0 | 6.0 | 0.00 | 0.00 | 0.00 | 44 | 1020.5 |
| 20260503181038 | 76 | 150 | 7.0 | 9.0 | 0.00 | 0.00 | 0.00 | 43 | 1020.7 |
| 20260503180535 | 75 | 151 | 3.0 | 3.0 | 0.00 | 0.00 | 0.00 | 42 | 1020.7 |
| 20260503180032 | 75 | 164 | 8.0 | 9.0 | 0.00 | 0.00 | 0.00 | 42 | 1021.1 |
| 20260503175530 | 77 | 150 | 6.0 | 7.0 | 0.00 | 0.00 | 0.00 | 42 | 1021.0 |
| 20260503175027 | 76 | 158 | 5.0 | 7.0 | 0.00 | 0.00 | 0.00 | 44 | 1020.8 |
| 20260503174524 | 75 | 165 | 4.0 | 5.0 | 0.00 | 0.00 | 0.00 | 44 | 1021.0 |
| 20260503174020 | 75 | 138 | 5.0 | 7.0 | 0.00 | 0.00 | 0.00 | 40 | 1021.4 |
| 20260503173515 | 76 | 330 | 3.0 | 5.0 | 0.00 | 0.00 | 0.00 | 42 | 1021.2 |
| 20260503173012 | 75 | 141 | 5.0 | 7.0 | 0.00 | 0.00 | 0.00 | 42 | 1021.5 |
| 20260503172510 | 74 | 159 | 6.0 | 8.0 | 0.00 | 0.00 | 0.00 | 45 | 1021.6 |
| 20260503172006 | 75 | 156 | 4.0 | 5.0 | 0.00 | 0.00 | 0.00 | 42 | 1021.7 |
| 20260503171503 | 75 | 155 | 6.0 | 8.0 | 0.00 | 0.00 | 0.00 | 42 | 1021.7 |
| 20260503171000 | 75 | 135 | 4.0 | 6.0 | 0.00 | 0.00 | 0.00 | 43 | 1021.4 |
| 20260503170456 | 75 | 162 | 5.0 | 7.0 | 0.00 | 0.00 | 0.00 | 42 | 1021.7 |
| 20260503150849 | 71 | 62 | 1.0 | 1.0 | 0.00 | 0.00 | 0.00 | 54 | 1022.3 |
| 20260503150345 | 71 | 63 | 1.0 | 1.0 | 0.00 | 0.00 | 0.00 | 53 | 1022.2 |
| 20260503140309 | 66 | 62 | 1.0 | 2.0 | 0.00 | 0.00 | 0.00 | 66 | 1021.6 |
| 20260503131239 | 58 | 63 | 0.0 | 0.0 | 0.00 | 0.00 | 0.00 | 89 | 1021.5 |
| 20260503130736 | 57 | 63 | 0.0 | 0.0 | 0.00 | 0.00 | 0.00 | 89 | 1021.5 |
| 20260503130233 | 56 | 63 | 0.0 | 0.0 | 0.00 | 0.00 | 0.00 | 89 | 1021.0 |
| 20260503120200 | 51 | 62 | 0.0 | 0.0 | 0.00 | 0.00 | 0.00 | 90 | 1020.8 |
| 20260503110627 | 53 | 62 | 0.0 | 0.0 | 0.00 | 0.00 | 0.00 | 85 | 1020.4 |
| 20260503110124 | 53 | 62 | 0.0 | 0.0 | 0.00 | 0.00 | 0.00 | 85 | 1020.3 |
| 20260503081440 | 54 | 75 | 0.0 | 0.0 | 0.00 | 0.00 | 0.00 | 80 | 1020.0 |
| 20260503080937 | 55 | 75 | 0.0 | 0.0 | 0.00 | 0.00 | 0.00 | 80 | 1020.0 |
| 20260503080433 | 55 | 76 | 0.0 | 0.0 | 0.00 | 0.00 | 0.00 | 79 | 1020.0 |
| 20260503072910 | 56 | 76 | 0.0 | 0.0 | 0.00 | 0.00 | 0.00 | 76 | 1020.5 |
| 20260503072407 | 55 | 76 | 0.0 | 0.0 | 0.00 | 0.00 | 0.00 | 77 | 1020.6 |
| 20260503071904 | 55 | 76 | 0.0 | 0.0 | 0.00 | 0.00 | 0.00 | 78 | 1020.4 |
| 20260503071401 | 56 | 76 | 0.0 | 0.0 | 0.00 | 0.00 | 0.00 | 78 | 1020.6 |
| 20260503070857 | 55 | 76 | 0.0 | 0.0 | 0.00 | 0.00 | 0.00 | 77 | 1020.6 |
| 20260503070355 | 55 | 76 | 0.0 | 0.0 | 0.00 | 0.00 | 0.00 | 78 | 1020.8 |
| 20260503060320 | 56 | 75 | 0.0 | 0.0 | 0.00 | 0.00 | 0.00 | 80 | 1020.9 |
| 20260503054808 | 56 | 76 | 0.0 | 0.0 | 0.00 | 0.00 | 0.00 | 78 | 1020.8 |
| 20260503054304 | 56 | 76 | 0.0 | 0.0 | 0.00 | 0.00 | 0.00 | 77 | 1020.7 |
| 20260503053802 | 57 | 76 | 0.0 | 0.0 | 0.00 | 0.00 | 0.00 | 77 | 1020.5 |
| 20260503053300 | 57 | 76 | 0.0 | 0.0 | 0.00 | 0.00 | 0.00 | 77 | 1020.8 |
| 20260503052756 | 56 | 76 | 0.0 | 0.0 | 0.00 | 0.00 | 0.00 | 78 | 1020.8 |
| 20260503052253 | 56 | 76 | 0.0 | 0.0 | 0.00 | 0.00 | 0.00 | 79 | 1020.7 |
| 20260503051749 | 56 | 76 | 0.0 | 0.0 | 0.00 | 0.00 | 0.00 | 79 | 1020.6 |
| 20260503051246 | 56 | 76 | 0.0 | 0.0 | 0.00 | 0.00 | 0.00 | 79 | 1020.7 |
| 20260503050742 | 56 | 76 | 0.0 | 0.0 | 0.00 | 0.00 | 0.00 | 78 | 1020.5 |
| 20260503050239 | 57 | 76 | 0.0 | 0.0 | 0.00 | 0.00 | 0.00 | 78 | 1020.4 |
| 20260503045736 | 57 | 76 | 0.0 | 0.0 | 0.00 | 0.00 | 0.00 | 77 | 1020.3 |
| 20260503045234 | 57 | 76 | 0.0 | 0.0 | 0.00 | 0.00 | 0.00 | 75 | 1020.6 |
| 20260503044730 | 57 | 76 | 0.0 | 0.0 | 0.00 | 0.00 | 0.00 | 74 | 1020.6 |
| 20260503044228 | 58 | 76 | 0.0 | 0.0 | 0.00 | 0.00 | 0.00 | 74 | 1020.4 |
| 20260503043724 | 58 | 76 | 0.0 | 0.0 | 0.00 | 0.00 | 0.00 | 74 | 1020.6 |
| 20260503043222 | 58 | 76 | 0.0 | 0.0 | 0.00 | 0.00 | 0.00 | 74 | 1020.8 |
| 20260503042718 | 58 | 76 | 0.0 | 0.0 | 0.00 | 0.00 | 0.00 | 74 | 1020.8 |
| 20260503042215 | 58 | 76 | 0.0 | 0.0 | 0.00 | 0.00 | 0.00 | 73 | 1020.7 |
| 20260503041710 | 58 | 76 | 0.0 | 0.0 | 0.00 | 0.00 | 0.00 | 73 | 1020.5 |
| 20260503041208 | 58 | 76 | 0.0 | 0.0 | 0.00 | 0.00 | 0.00 | 73 | 1020.9 |
| 20260503040706 | 58 | 76 | 0.0 | 0.0 | 0.00 | 0.00 | 0.00 | 73 | 1020.6 |
| 20260503040203 | 58 | 76 | 0.0 | 0.0 | 0.00 | 0.00 | 0.00 | 73 | 1020.4 |
| 20260503035659 | 58 | 76 | 0.0 | 0.0 | 0.00 | 0.00 | 0.00 | 73 | 1020.4 |
| 20260503035157 | 58 | 76 | 0.0 | 0.0 | 0.00 | 0.00 | 0.00 | 74 | 1020.4 |
| 20260503034654 | 58 | 76 | 0.0 | 0.0 | 0.00 | 0.00 | 0.00 | 74 | 1020.5 |
| 20260503034151 | 59 | 76 | 0.0 | 0.0 | 0.00 | 0.00 | 0.00 | 73 | 1020.4 |
| 20260503033649 | 59 | 76 | 0.0 | 0.0 | 0.00 | 0.00 | 0.00 | 73 | 1020.5 |
| 20260503033146 | 59 | 76 | 0.0 | 0.0 | 0.00 | 0.00 | 0.00 | 72 | 1020.5 |
| 20260503032644 | 59 | 76 | 0.0 | 0.0 | 0.00 | 0.00 | 0.00 | 73 | 1020.4 |
| 20260503032143 | 59 | 76 | 0.0 | 0.0 | 0.00 | 0.00 | 0.00 | 73 | 1020.4 |
| 20260503031639 | 59 | 76 | 0.0 | 0.0 | 0.00 | 0.00 | 0.00 | 73 | 1020.4 |
| 20260503031137 | 59 | 76 | 0.0 | 0.0 | 0.00 | 0.00 | 0.00 | 72 | 1020.2 |
| 20260503030633 | 59 | 76 | 0.0 | 0.0 | 0.00 | 0.00 | 0.00 | 72 | 1020.3 |
| 20260503030130 | 59 | 76 | 0.0 | 0.0 | 0.00 | 0.00 | 0.00 | 73 | 1020.1 |
| 20260503025626 | 58 | 76 | 0.0 | 0.0 | 0.00 | 0.00 | 0.00 | 74 | 1019.8 |
| 20260503025125 | 59 | 76 | 0.0 | 0.0 | 0.00 | 0.00 | 0.00 | 75 | 1019.9 |
| 20260503024621 | 59 | 76 | 0.0 | 0.0 | 0.00 | 0.00 | 0.00 | 74 | 1019.9 |
| 20260503024118 | 60 | 76 | 0.0 | 0.0 | 0.00 | 0.00 | 0.00 | 71 | 1019.8 |
| 20260503023615 | 60 | 76 | 0.0 | 0.0 | 0.00 | 0.00 | 0.00 | 71 | 1019.9 |
| 20260503023112 | 60 | 76 | 0.0 | 0.0 | 0.00 | 0.00 | 0.00 | 71 | 1019.9 |
| 20260503022608 | 59 | 76 | 0.0 | 0.0 | 0.00 | 0.00 | 0.00 | 71 | 1019.7 |
| 20260503022103 | 59 | 76 | 0.0 | 0.0 | 0.00 | 0.00 | 0.00 | 74 | 1019.5 |
| 20260503021600 | 59 | 76 | 0.0 | 0.0 | 0.00 | 0.00 | 0.00 | 75 | 1019.3 |
| 20260503021056 | 60 | 76 | 0.0 | 0.0 | 0.00 | 0.00 | 0.00 | 73 | 1019.3 |
| 20260503020554 | 60 | 76 | 0.0 | 0.0 | 0.00 | 0.00 | 0.00 | 72 | 1019.2 |
| 20260503020050 | 61 | 76 | 0.0 | 0.0 | 0.00 | 0.00 | 0.00 | 69 | 1019.4 |
| 20260503015547 | 61 | 76 | 0.0 | 0.0 | 0.00 | 0.00 | 0.00 | 68 | 1019.1 |
| 20260503015045 | 61 | 76 | 0.0 | 0.0 | 0.00 | 0.00 | 0.00 | 68 | 1019.2 |
| 20260503014540 | 62 | 76 | 0.0 | 0.0 | 0.00 | 0.00 | 0.00 | 67 | 1018.9 |
| 20260503014038 | 62 | 76 | 0.0 | 0.0 | 0.00 | 0.00 | 0.00 | 66 | 1019.1 |
| 20260503013535 | 62 | 76 | 0.0 | 0.0 | 0.00 | 0.00 | 0.00 | 65 | 1019.0 |
| 20260503013033 | 63 | 76 | 0.0 | 0.0 | 0.00 | 0.00 | 0.00 | 64 | 1018.8 |
| 20260503012530 | 63 | 76 | 0.0 | 0.0 | 0.00 | 0.00 | 0.00 | 64 | 1018.8 |
| 20260503012027 | 64 | 76 | 0.0 | 0.0 | 0.00 | 0.00 | 0.00 | 62 | 1018.7 |
| 20260503011523 | 64 | 76 | 0.0 | 0.0 | 0.00 | 0.00 | 0.00 | 61 | 1018.9 |
| 20260503011021 | 65 | 76 | 0.0 | 0.0 | 0.00 | 0.00 | 0.00 | 60 | 1018.9 |
| 20260503010517 | 66 | 77 | 0.0 | 1.0 | 0.00 | 0.00 | 0.00 | 57 | 1018.8 |
| 20260503010015 | 66 | 73 | 0.0 | 0.0 | 0.00 | 0.00 | 0.00 | 57 | 1018.6 |
| 20260503005512 | 67 | 78 | 0.0 | 0.0 | 0.00 | 0.00 | 0.00 | 56 | 1018.7 |
| 20260503005009 | 67 | 85 | 0.0 | 0.0 | 0.00 | 0.00 | 0.00 | 54 | 1018.7 |
| 20260503004504 | 68 | 98 | 0.0 | 0.0 | 0.00 | 0.00 | 0.00 | 53 | 1018.6 |
| 20260503004003 | 68 | 99 | 0.0 | 1.0 | 0.00 | 0.00 | 0.00 | 52 | 1018.5 |
| 20260503003459 | 69 | 109 | 1.0 | 2.0 | 0.00 | 0.00 | 0.00 | 50 | 1018.6 |
| 20260503002956 | 69 | 64 | 0.0 | 1.0 | 0.00 | 0.00 | 0.00 | 51 | 1018.7 |
| 20260503002453 | 70 | 83 | 0.0 | 1.0 | 0.00 | 0.00 | 0.00 | 50 | 1018.7 |
| 20260503001949 | 71 | 111 | 2.0 | 2.0 | 0.00 | 0.00 | 0.00 | 48 | 1018.6 |
| 20260503001446 | 72 | 72 | 0.0 | 0.0 | 0.00 | 0.00 | 0.00 | 45 | 1018.5 |
| 20260503000944 | 72 | 85 | 1.0 | 2.0 | 0.00 | 0.00 | 0.00 | 47 | 1018.6 |
| 20260503000441 | 73 | 118 | 2.0 | 2.0 | 0.00 | 0.00 | 0.00 | 45 | 1018.6 |
| 20260502235938 | 73 | 91 | 2.0 | 2.0 | 0.00 | 0.00 | 0.00 | 43 | 1018.3 |
| 20260502235435 | 74 | 119 | 0.0 | 1.0 | 0.00 | 0.00 | 0.00 | 43 | 1018.5 |
| 20260502234932 | 75 | 13 | 0.0 | 1.0 | 0.00 | 0.00 | 0.00 | 42 | 1018.5 |
| 20260502234429 | 75 | 86 | 0.0 | 1.0 | 0.00 | 0.00 | 0.00 | 40 | 1018.5 |
| 20260502233926 | 75 | 20 | 0.0 | 1.0 | 0.00 | 0.00 | 0.00 | 40 | 1018.7 |
| 20260502233421 | 75 | 25 | 1.0 | 2.0 | 0.00 | 0.00 | 0.00 | 40 | 1018.3 |
| 20260502232919 | 76 | 111 | 1.0 | 2.0 | 0.00 | 0.00 | 0.00 | 39 | 1018.2 |
| 20260502232414 | 76 | 75 | 1.0 | 2.0 | 0.00 | 0.00 | 0.00 | 40 | 1018.3 |
| 20260502231912 | 75 | 7 | 2.0 | 3.0 | 0.00 | 0.00 | 0.00 | 40 | 1018.6 |
| 20260502231409 | 76 | 64 | 3.0 | 5.0 | 0.00 | 0.00 | 0.00 | 39 | 1018.5 |
| 20260502230907 | 77 | 18 | 1.0 | 2.0 | 0.00 | 0.00 | 0.00 | 41 | 1018.6 |
| 20260502230405 | 76 | 19 | 2.0 | 2.0 | 0.00 | 0.00 | 0.00 | 40 | 1018.5 |
| 20260502225903 | 76 | 80 | 1.0 | 2.0 | 0.00 | 0.00 | 0.00 | 41 | 1018.2 |
| 20260502225358 | 77 | 78 | 0.0 | 1.0 | 0.00 | 0.00 | 0.00 | 41 | 1018.0 |
| 20260502224855 | 76 | 41 | 1.0 | 1.0 | 0.00 | 0.00 | 0.00 | 39 | 1018.3 |
| 20260502224351 | 76 | 78 | 0.0 | 1.0 | 0.00 | 0.00 | 0.00 | 42 | 1018.2 |
| 20260502223849 | 77 | 96 | 1.0 | 2.0 | 0.00 | 0.00 | 0.00 | 41 | 1018.3 |
| 20260502223347 | 76 | 83 | 1.0 | 2.0 | 0.00 | 0.00 | 0.00 | 44 | 1017.8 |
| 20260502222844 | 75 | 130 | 0.0 | 0.0 | 0.00 | 0.00 | 0.00 | 44 | 1018.0 |
| 20260502222342 | 74 | 11 | 1.0 | 2.0 | 0.00 | 0.00 | 0.00 | 44 | 1018.2 |
| 20260502221837 | 76 | 42 | 0.0 | 2.0 | 0.00 | 0.00 | 0.00 | 42 | 1018.1 |
| 20260502221334 | 77 | 351 | 3.0 | 5.0 | 0.00 | 0.00 | 0.00 | 41 | 1018.2 |
| 20260502220831 | 77 | 129 | 2.0 | 3.0 | 0.00 | 0.00 | 0.00 | 41 | 1018.1 |
| 20260502220327 | 77 | 113 | 2.0 | 2.0 | 0.00 | 0.00 | 0.00 | 42 | 1018.5 |
| 20260502215823 | 76 | 145 | 2.0 | 2.0 | 0.00 | 0.00 | 0.00 | 44 | 1018.3 |
| 20260502215321 | 76 | 135 | 3.0 | 3.0 | 0.00 | 0.00 | 0.00 | 43 | 1018.3 |
| 20260502214818 | 77 | 102 | 1.0 | 2.0 | 0.00 | 0.00 | 0.00 | 43 | 1018.3 |
| 20260502214315 | 76 | 83 | 2.0 | 2.0 | 0.00 | 0.00 | 0.00 | 43 | 1018.5 |
| 20260502213812 | 76 | 102 | 0.0 | 0.0 | 0.00 | 0.00 | 0.00 | 41 | 1018.3 |
| 20260502213309 | 77 | 56 | 2.0 | 3.0 | 0.00 | 0.00 | 0.00 | 44 | 1018.6 |
| 20260502212808 | 77 | 57 | 4.0 | 5.0 | 0.00 | 0.00 | 0.00 | 41 | 1018.5 |
| 20260502212306 | 77 | 143 | 2.0 | 3.0 | 0.00 | 0.00 | 0.00 | 43 | 1019.1 |